This is the latest recevied weather packets stored in our database for station/object N9DRW. If no packets are shown the sender has not sent any weather packets the latest 10 day(s).
| Time | Temp. | Humidity | Pressure | Rain* | Wind** | Luminosity | Snow |
|---|---|---|---|---|---|---|---|
| 1778139726 | 0.56° C | 76% | 0 hPa | 0 mm | - | - | - |
| 1778139126 | 0.56° C | 75% | 0 hPa | 0 mm | - | - | - |
| 1778138526 | 1.11° C | 74% | 0 hPa | 0 mm | - | - | - |
| 1778137926 | 1.11° C | 74% | 0 hPa | 0 mm | - | - | - |
| 1778137326 | 0.56° C | 75% | 0 hPa | 0 mm | - | - | - |
| 1778136726 | 1.11° C | 75% | 0 hPa | 0 mm | - | - | - |
| 1778136126 | 1.67° C | 72% | 0 hPa | 0 mm | - | - | - |
| 1778135526 | 1.67° C | 71% | 0 hPa | 0 mm | - | - | - |
| 1778134926 | 1.67° C | 71% | 0 hPa | 0 mm | - | - | - |
| 1778134326 | 2.22° C | 70% | 0 hPa | 0 mm | - | - | - |
| 1778133726 | 2.22° C | 69% | 0 hPa | 0 mm | - | - | - |
| 1778133126 | 2.22° C | 70% | 0 hPa | 0 mm | - | - | - |
| 1778132526 | 2.22° C | 71% | 0 hPa | 0 mm | - | - | - |
| 1778131926 | 1.67° C | 72% | 0 hPa | 0 mm | - | - | - |
| 1778131326 | 1.67° C | 71% | 0 hPa | 0 mm | - | - | - |
| 1778130726 | 1.67° C | 72% | 0 hPa | 0 mm | - | - | - |
| 1778130126 | 1.67° C | 72% | 0 hPa | 0 mm | - | - | - |
| 1778129526 | 1.67° C | 72% | 0 hPa | 0 mm | - | - | - |
| 1778128926 | 2.22° C | 71% | 0 hPa | 0 mm | - | - | - |
| 1778128330 | 2.22° C | 70% | 0 hPa | 0 mm | - | - | - |
| 1778127727 | 2.22° C | 68% | 0 hPa | 0 mm | - | - | - |
| 1778127126 | 2.78° C | 70% | 0 hPa | 0 mm | - | - | - |
| 1778126526 | 2.78° C | 69% | 0 hPa | 0 mm | - | - | - |
| 1778125926 | 2.78° C | 68% | 0 hPa | 0 mm | - | - | - |
| 1778125326 | 3.33° C | 66% | 0 hPa | 0 mm | - | - | - |
* Rain latest hour (hover to see other rain measurements)
** Current wind speed in m/s (hover to see current wind gust speed)